Norman, OK

2:13 AM CST on December 03, 2016 (GMT -0600)
Univ. Of Oklahoma Westheimer

Weather History for KOUN - December, 2012

Change the Weather History Date:

Wednesday, December 19, 2012

  Actual Average Record
Temperature  
Mean Temperature 50 °F -  
Max Temperature 64 °F 56 °F 68 °F (1962)
Min Temperature 35 °F 29 °F 7 °F (1964)
Degree Days  
Heating Degree Days 16    
Moisture  
Dew Point 44 °F    
Average Humidity 75    
Maximum Humidity 100    
Minimum Humidity 44    
Precipitation  
Precipitation 0.00 in - - ()
Sea Level Pressure  
Sea Level Pressure 29.63 in    
Wind  
Wind Speed 10 mph (South)    
Max Wind Speed 31 mph    
Max Gust Speed 43 mph    
Visibility 10 miles    
Events      
Averages and records for this station are not official NWS values.
T = Trace of Precipitation, MM = Missing Value Source: NWS Daily Summary

Daily Weather History Graph

Daily Weather History Graph

Search for Another Location

Airport or City:

Trip Planner

Search our weather history database for the weather conditions in past years. The results will help you decide how hot, cold, wet, or windy it might be!

Date:

Astronomy

Dec. 19, 2012 Rise Set
Actual Time 7:33 AM CST 5:20 PM CST
Civil Twilight 7:05 AM CST 5:49 PM CST
Nautical Twilight 6:33 AM CST 6:20 PM CST
Astronomical Twilight 6:02 AM CST 6:51 PM CST
Moon 11:57 AM CST (12/19) No Moon Set
Length of Visible Light 10h 43m
Length of Day
9h 46m
Waxing Crescent, 45% of the Moon is Illuminated
Dec 19
Waxing Crescent
Dec 19
First Quarter
Dec 28
Full
Jan 4
Last Quarter
Jan 11
New

Hourly Weather History & Observations

Time (CST) Temp. Windchill Dew Point Humidity Pressure Visibility Wind Dir Wind Speed Gust Speed Precip Events Conditions
12:15 AM 39.2 °F 37.0 °F 32.0 °F 75% 29.77 in 10.0 mi East 3.5 mph - N/A   Clear
12:35 AM 44.6 °F 40.7 °F 32.0 °F 61% 29.76 in 10.0 mi East 6.9 mph - N/A   Clear
12:55 AM 44.6 °F 42.2 °F 32.0 °F 61% 29.75 in 10.0 mi East 4.6 mph - N/A   Clear
1:15 AM 39.2 °F 37.0 °F 32.0 °F 75% 29.74 in 10.0 mi ENE 3.5 mph - N/A   Clear
1:35 AM 41.0 °F 38.0 °F 32.0 °F 70% 29.73 in 10.0 mi East 4.6 mph - N/A   Clear
1:55 AM 37.4 °F 32.8 °F 32.0 °F 81% 29.74 in 10.0 mi NNE 5.8 mph - N/A   Clear
2:15 AM 35.6 °F 32.8 °F 32.0 °F 87% 29.73 in 10.0 mi NE 3.5 mph - N/A   Clear
2:35 AM 37.4 °F 33.8 °F 32.0 °F 81% 29.72 in 10.0 mi NE 4.6 mph - N/A   Clear
2:55 AM 37.4 °F 32.1 °F 32.0 °F 81% 29.72 in 10.0 mi NE 6.9 mph - N/A   Clear
3:15 AM 37.4 °F 33.8 °F 32.0 °F 81% 29.72 in 10.0 mi NE 4.6 mph - N/A   Clear
3:35 AM 37.4 °F 33.8 °F 32.0 °F 81% 29.72 in 10.0 mi East 4.6 mph - N/A   Clear
3:55 AM 41.0 °F 37.1 °F 32.0 °F 70% 29.70 in 10.0 mi East 5.8 mph - N/A   Clear
4:15 AM 42.8 °F 38.6 °F 33.8 °F 70% 29.69 in 10.0 mi ESE 6.9 mph - N/A   Clear
4:35 AM 42.8 °F 39.3 °F 33.8 °F 70% 29.69 in 10.0 mi ESE 5.8 mph - N/A   Clear
4:55 AM 42.8 °F 41.1 °F 35.6 °F 76% 29.68 in 10.0 mi East 3.5 mph - N/A   Clear
5:15 AM 42.8 °F 41.1 °F 35.6 °F 76% 29.68 in 10.0 mi East 3.5 mph - N/A   Clear
5:35 AM 42.8 °F 41.1 °F 35.6 °F 76% 29.67 in 10.0 mi SE 3.5 mph - N/A   Clear
5:55 AM 42.8 °F 41.1 °F 35.6 °F 76% 29.67 in 10.0 mi SE 3.5 mph - N/A   Clear
6:15 AM 42.8 °F 41.1 °F 35.6 °F 76% 29.67 in 10.0 mi South 3.5 mph - N/A   Clear
6:35 AM 44.6 °F - 37.4 °F 76% 29.67 in 10.0 mi Calm Calm - N/A   Clear
6:55 AM 44.6 °F 41.4 °F 37.4 °F 76% 29.67 in 10.0 mi SSE 5.8 mph - N/A   Clear
7:15 AM 46.4 °F 41.9 °F 39.2 °F 76% 29.67 in 10.0 mi South 9.2 mph - N/A   Clear
7:35 AM 46.4 °F 40.4 °F 41.0 °F 81% 29.67 in 10.0 mi SSE 13.8 mph - N/A   Clear
7:55 AM 48.2 °F - 42.8 °F 82% 29.67 in 10.0 mi South 12.7 mph - N/A   Clear
8:15 AM 48.2 °F - 42.8 °F 82% 29.67 in 10.0 mi South 11.5 mph - N/A   Clear
8:35 AM 50.0 °F - 44.6 °F 82% 29.66 in 10.0 mi South 15.0 mph - N/A   Clear
8:55 AM 50.0 °F - 48.2 °F 94% 29.65 in 10.0 mi SSE 16.1 mph - N/A   Clear
9:15 AM 51.8 °F - 51.8 °F 100% 29.67 in 10.0 mi South 16.1 mph 23.0 mph N/A   Scattered Clouds
9:35 AM 53.6 °F - 53.6 °F 100% 29.66 in 7.0 mi South 15.0 mph - N/A   Overcast
9:55 AM 55.4 °F - 55.4 °F 100% 29.67 in 7.0 mi South 13.8 mph - N/A   Overcast
10:15 AM 57.2 °F - 55.4 °F 94% 29.66 in 10.0 mi South 15.0 mph 18.4 mph N/A   Overcast
10:35 AM 59.0 °F - 57.2 °F 94% 29.65 in 7.0 mi SSE 13.8 mph - N/A   Overcast
10:55 AM 59.0 °F - 57.2 °F 94% 29.63 in 10.0 mi South 16.1 mph 21.9 mph N/A   Overcast
11:15 AM 60.8 °F - 59.0 °F 94% 29.63 in 10.0 mi South 17.3 mph 20.7 mph N/A   Overcast
11:35 AM 60.8 °F - 59.0 °F 94% 29.62 in 10.0 mi South 18.4 mph 21.9 mph N/A   Overcast
11:55 AM 62.6 °F - 59.0 °F 88% 29.60 in 10.0 mi South 18.4 mph 23.0 mph N/A   Overcast
12:15 PM 62.6 °F - 59.0 °F 88% 29.59 in 10.0 mi South 17.3 mph 25.3 mph N/A   Overcast
12:35 PM 62.6 °F - 59.0 °F 88% 29.57 in 10.0 mi South 17.3 mph 27.6 mph N/A   Overcast
12:55 PM 62.6 °F - 59.0 °F 88% 29.57 in 10.0 mi South 18.4 mph 26.5 mph N/A   Mostly Cloudy
1:15 PM 64.4 °F - 59.0 °F 83% 29.57 in 10.0 mi South 17.3 mph 24.2 mph N/A   Mostly Cloudy
1:35 PM 64.4 °F - 59.0 °F 83% 29.55 in 10.0 mi South 18.4 mph 25.3 mph N/A   Mostly Cloudy
1:55 PM 64.4 °F - 59.0 °F 83% 29.55 in 10.0 mi South 20.7 mph 32.2 mph N/A   Scattered Clouds
2:15 PM 64.4 °F - 59.0 °F 83% 29.53 in 10.0 mi SSW 19.6 mph 25.3 mph N/A   Scattered Clouds
2:35 PM 64.4 °F - 57.2 °F 77% 29.53 in 10.0 mi South 20.7 mph 27.6 mph N/A   Clear
2:55 PM 64.4 °F - 57.2 °F 77% 29.52 in 10.0 mi South 21.9 mph - N/A   Clear
3:15 PM 64.4 °F - 57.2 °F 77% 29.52 in 10.0 mi South 16.1 mph 25.3 mph N/A   Clear
3:35 PM 64.4 °F - 57.2 °F 77% 29.52 in 10.0 mi South 17.3 mph - N/A   Clear
3:55 PM 64.4 °F - 55.4 °F 73% 29.52 in 10.0 mi South 16.1 mph 21.9 mph N/A   Clear
4:15 PM 64.4 °F - 55.4 °F 73% 29.53 in 10.0 mi SSW 13.8 mph 18.4 mph N/A   Clear
4:35 PM 64.4 °F - 53.6 °F 68% 29.52 in 10.0 mi SSW 16.1 mph - N/A   Clear
4:55 PM 62.6 °F - 53.6 °F 72% 29.52 in 10.0 mi South 16.1 mph - N/A   Clear
5:15 PM 62.6 °F - 53.6 °F 72% 29.51 in 10.0 mi South 17.3 mph 23.0 mph N/A   Clear
5:35 PM 62.6 °F - 53.6 °F 72% 29.52 in 10.0 mi South 15.0 mph 26.5 mph N/A   Scattered Clouds
5:55 PM 62.6 °F - 53.6 °F 72% 29.51 in 10.0 mi South 17.3 mph - N/A   Mostly Cloudy
6:15 PM 62.6 °F - 53.6 °F 72% 29.52 in 10.0 mi SSW 17.3 mph - N/A   Overcast
6:35 PM 62.6 °F - 51.8 °F 68% 29.52 in 10.0 mi SSW 13.8 mph 18.4 mph N/A   Overcast
6:55 PM 62.6 °F - 50.0 °F 63% 29.52 in 10.0 mi SSW 18.4 mph - N/A   Overcast
7:15 PM 64.4 °F - 46.4 °F 52% 29.50 in 7.0 mi SW 16.1 mph - N/A   Overcast
7:35 PM 64.4 °F - 42.8 °F 45% 29.54 in 5.0 mi WSW 26.5 mph 41.4 mph N/A   Haze
7:55 PM 62.6 °F - 41.0 °F 45% 29.56 in 7.0 mi West 21.9 mph 27.6 mph N/A   Overcast
8:15 PM 59.0 °F - 37.4 °F 45% 29.58 in 10.0 mi West 13.8 mph 24.2 mph N/A   Overcast
8:35 PM 57.2 °F - 35.6 °F 44% 29.58 in 10.0 mi West 11.5 mph 18.4 mph N/A   Overcast
8:55 PM 55.4 °F - 33.8 °F 44% 29.60 in 10.0 mi West 20.7 mph 28.8 mph N/A   Overcast
9:15 PM 53.6 °F - 32.0 °F 44% 29.62 in 10.0 mi West 28.8 mph 35.7 mph N/A   Overcast
9:35 PM 50.0 °F - 32.0 °F 50% 29.62 in 10.0 mi West 18.4 mph 29.9 mph N/A   Overcast
9:55 PM 46.4 °F 38.1 °F 30.2 °F 53% 29.64 in 10.0 mi West 24.2 mph 35.7 mph N/A   Mostly Cloudy
10:15 PM 42.8 °F 34.0 °F 32.0 °F 66% 29.67 in 10.0 mi West 20.7 mph 35.7 mph N/A   Scattered Clouds
10:35 PM 41.0 °F 31.9 °F 32.0 °F 70% 29.69 in 10.0 mi West 19.6 mph 31.1 mph N/A   Clear
10:55 PM 41.0 °F 31.4 °F 32.0 °F 70% 29.70 in 10.0 mi West 21.9 mph 25.3 mph N/A   Clear
11:15 PM 41.0 °F 32.5 °F 33.8 °F 76% 29.71 in 10.0 mi West 17.3 mph 26.5 mph N/A   Mostly Cloudy
11:35 PM 41.0 °F 29.7 °F 33.8 °F 76% 29.73 in 10.0 mi WNW 31.1 mph 35.7 mph N/A   Overcast
11:55 PM 37.4 °F 25.9 °F 32.0 °F 81% 29.76 in 10.0 mi WNW 25.3 mph 42.6 mph N/A   Overcast